This demonstration page uses our WeatherBlox Daily Observations layout. Learn more.

39.92423, -83.80882

Hourly Observations for August 7, 2017

Temp ( °F °C ) Dew Point ( °F °C ) Humidity (%) Winds ( mph kmh ) Pressure ( in mb ) Visibility ( mi km ) Precip ( " mm )
12:56 am 00:56 Clear 62 16.7 61 16.1 96 96 SE 5 7 30.05 1018 10 16.0934 0 0
1:56 am 01:56 Clear 61 16.1 60 15.6 97 97 Calm 30.04 1017 10 16.0934 0 0
2:56 am 02:56 Clear 61 16.1 60 15.6 97 97 E 3 6 30.01 1016 10 16.0934 0 0
4:56 am 04:56 Mostly Clear with Light Rain 62 16.7 61 16.1 96 96 NE 6 9 29.99 1016 9 14.48406 0 0.0254
5:56 am 05:56 Mostly Clear with Light Rain 62 16.7 61 16.1 96 96 E 5 7 29.99 1016 10 16.0934 0.02 0.508
6:56 am 06:56 Partly Cloudy with Mist and Fog 62 16.7 61 16.1 96 96 E 6 9 29.99 1016 5 8.0467 0 0.0254
7:56 am 07:56 Partly Cloudy with Light Rain 62 16.7 61 16.1 96 96 E 6 9 29.99 1016 8 12.87472 0 0.0254
8:56 am 08:56 Partly Cloudy with Light Rain 62 16.7 61 16.1 96 96 undefined N/A 30 1016 0.75 1.207005 0.02 0.508
9:06 am 09:06 Partly Cloudy with Light Rain 63 17 61 16 94 94 ENE 6 9 30 1016 5 8.0467 0 0.0254
9:31 am 09:31 Cloudy with Light Rain 63 17 61 16 94 94 ENE 5 7 30 1016 3 4.82802 0.01 0.254
9:56 am 09:56 Cloudy with Light Rain 63 17.2 61 16.1 93 93 NE 8 13 30 1016 4 6.43736 0.03 0.762
10:51 am 10:51 Cloudy with Light Rain 63 17 61 16 94 94 ENE 7 11 30 1016 10 16.0934 0.03 0.762
10:56 am 10:56 Cloudy with Light Rain 62 16.7 61 16.1 96 96 ENE 6 9 30.01 1016 10 16.0934 0.03 0.762
11:25 am 11:25 Cloudy with Light Rain 63 17 63 17 100 100 ENE 6 9 30.03 1017 10 16.0934 0 0.0254
11:52 am 11:52 Cloudy 64 18 63 17 94 94 NE 7 11 30 1016 10 16.0934 0 0.0254
11:56 am 11:56 Cloudy 65 18.3 61 16.1 87 87 VRB 6 9 30.01 1016 10 16.0934 0 0.0254
12:06 pm 12:06 Cloudy 64 18 61 16 88 88 NE 7 11 30 1016 10 16.0934 0 0
12:56 pm 12:56 Cloudy 68 20 62 16.7 81 81 ENE 8 13 30 1016 10 16.0934 0 0
1:20 pm 13:20 Cloudy 68 20 61 16 78 78 ENE 9 15 29.97 1015 10 16.0934 0 0
1:27 pm 13:27 Cloudy 70 21 63 17 78 78 ENE 8 13 29.97 1015 10 16.0934 0 0
1:56 pm 13:56 Mostly Cloudy 70 21.1 63 17.2 79 79 E 8 13 30 1016 10 16.0934 0 0
2:40 pm 14:40 Mostly Cloudy 73 23 64 18 74 74 ESE 9 15 29.97 1015 10 16.0934 0 0
2:56 pm 14:56 Cloudy 72 22.2 63 17.2 73 73 E 7 11 30 1016 10 16.0934 0 0
3:05 pm 15:05 Mostly Cloudy 73 23 63 17 69 69 VRB 6 9 29.97 1015 10 16.0934 0 0
3:12 pm 15:12 Cloudy 72 22 63 17 73 73 SE 7 11 29.97 1015 10 16.0934 0 0
3:20 pm 15:20 Cloudy 72 22 63 17 73 73 E 10 17 29.97 1015 10 16.0934 0 0
3:54 pm 15:54 Mostly Cloudy 72 22 63 17 73 73 E 6 9 29.97 1015 10 16.0934 0 0
3:56 pm 15:56 Mostly Cloudy 72 22.2 63 17.2 73 73 ESE 7 11 29.99 1016 10 16.0934 0 0
4:56 pm 16:56 Mostly Cloudy 73 22.8 63 17.2 71 71 ESE 6 9 29.98 1015 10 16.0934 0 0
5:33 pm 17:33 Cloudy 73 23 63 17 69 69 Calm 29.97 1015 10 16.0934 0 0
5:56 pm 17:56 Cloudy 73 22.8 63 17.2 71 71 NNW 5 7 29.99 1016 10 16.0934 0 0
6:56 pm 18:56 Mostly Sunny 73 22.8 63 17.2 71 71 NW 6 9 29.98 1015 10 16.0934 0 0
7:56 pm 19:56 Sunny 70 21.1 63 17.2 79 79 NNW 3 6 29.99 1016 10 16.0934 0 0
8:56 pm 20:56 Clear 67 19.4 61 16.1 81 81 NNW 5 7 30.01 1016 10 16.0934 0 0
9:56 pm 21:56 Clear 65 18.3 60 15.6 84 84 NW 3 6 30.04 1017 10 16.0934 0 0
10:56 pm 22:56 Clear 64 17.8 60 15.6 87 87 NW 3 6 30.05 1018 10 16.0934 0 0
11:56 pm 23:56 Clear 63 17.2 59 15 87 87 NW 6 9 30.05 1018 10 16.0934 0 0

Powered by AerisWeather